Renton, WA
on Wednesday, December 19, 2012

Wednesday
Previous Day Next Day
Daily Summary
 ActualAverage (KSEA)Record (KSEA)
Temperature
Mean Temperature °F 40°F  
Max Temperature 50°F 45°F 56°F (1969)
Min Temperature 37°F 35°F 17°F (1949)
Degree Days
Heating Degree Days 22 25  
Month to date heating degree days 460  
Since 1 July heating degree days 1643  
Cooling Degree Days 0 0  
Month to date cooling degree days 0  
Year to date cooling degree days 189  
Moisture
Dew Point 35°F   
Average Humidity 77    
Maximum Humidity 96    
Minimum Humidity 56    
Precipitation
Precipitation 0.49 in 0.17 in 1.19 in (1953)
Month to date precipitation 3.36  
Year to date precipitation 35.50  
Snow
Snow 0.00 in in 3.30 in (1964)
Month to date snowfall  
Since 1 July snowfall  
Snow Depth in   
Wind
Wind Speed 6 mph   
Max Wind Speed 14 mph   
Max Gust Speed 28 mph   
Visibility 9 miles   
Events Rain   

Key: T is trace of precipitation, MM is missing value
Source: NWS Daily Summary
Time(PST)TemperatureDew PointHumidity Pressure Visibility Wind DirectionWind SpeedGust SpeedPrecipitationEvents Conditions
12:53 AM 39.0°F 30.0°F 70% 29.96 in 10.0 miles Variable 3.5 mph - N/A   Overcast
1:53 AM 39.0°F 28.9°F 67% 29.94 in 10.0 miles ESE 5.8 mph - N/A   Overcast
2:53 AM 39.9°F 28.0°F 63% 29.92 in 10.0 miles ESE 3.5 mph - N/A   Overcast
3:37 AM 39.2°F 30.2°F 70% 29.86 in 10.0 miles East 5.8 mph - 0.00 in Rain Light Rain
3:53 AM 39.9°F 30.0°F 68% 29.86 in 10.0 miles ESE 4.6 mph - 0.00 in Rain Light Rain
4:53 AM 37.0°F 32.0°F 82% 29.84 in 8.0 miles ESE 6.9 mph - 0.01 in Rain Light Rain
5:17 AM 37.4°F 33.8°F 87% 29.81 in 10.0 miles East 8.1 mph - 0.00 in Rain Light Rain
5:53 AM 37.9°F 33.1°F 83% 29.81 in 10.0 miles ESE 3.5 mph - 0.01 in   Overcast
6:53 AM 39.0°F 33.1°F 79% 29.79 in 10.0 miles SSE 4.6 mph - 0.00 in Rain Light Rain
7:53 AM 39.9°F 34.0°F 79% 29.77 in 10.0 miles East 9.2 mph - 0.00 in Rain Light Rain
8:53 AM 39.9°F 34.0°F 79% 29.75 in 10.0 miles Variable 4.6 mph 17.3 mph 0.00 in   Overcast
9:53 AM 41.0°F 34.0°F 76% 29.73 in 10.0 miles Variable 3.5 mph - N/A   Overcast
10:53 AM 42.1°F 33.1°F 70% 29.70 in 10.0 miles ESE 9.2 mph - N/A   Overcast
11:53 AM 44.1°F 34.0°F 68% 29.68 in 10.0 miles ESE 8.1 mph 16.1 mph N/A   Overcast
12:53 PM 48.9°F 34.0°F 56% 29.64 in 10.0 miles SE 6.9 mph 27.6 mph 0.00 in   Overcast
1:53 PM 50.0°F 35.1°F 57% 29.62 in 10.0 miles SSE 11.5 mph 21.9 mph 0.00 in   Overcast
2:53 PM 48.9°F 37.9°F 66% 29.65 in 4.0 miles South 13.8 mph 25.3 mph 0.03 in Rain Rain
3:53 PM 46.9°F 39.0°F 74% 29.66 in 9.0 miles SSE 5.8 mph - 0.07 in Rain Light Rain
4:53 PM 46.0°F 39.0°F 76% 29.67 in 9.0 miles South 10.4 mph - 0.03 in Rain Light Rain
5:53 PM 45.0°F 39.9°F 82% 29.68 in 10.0 miles SE 8.1 mph 17.3 mph 0.04 in Rain Light Rain
6:02 PM 44.6°F 39.2°F 81% 29.67 in 10.0 miles SSE 8.1 mph 17.3 mph 0.00 in Rain Light Rain
6:53 PM 45.0°F 39.9°F 82% 29.69 in 7.0 miles SE 6.9 mph 17.3 mph 0.06 in Rain Light Rain
7:53 PM 43.0°F 39.0°F 86% 29.68 in 5.0 miles ESE 6.9 mph 17.3 mph 0.04 in Rain Rain
8:53 PM 43.0°F 39.9°F 89% 29.66 in 8.0 miles ESE 10.4 mph - 0.07 in Rain Light Rain
9:53 PM 43.0°F 39.9°F 89% 29.64 in 10.0 miles ESE 8.1 mph - 0.03 in Rain Light Rain
10:53 PM 42.1°F 41.0°F 96% 29.63 in 6.0 miles Variable 3.5 mph - 0.08 in Rain Rain
11:53 PM 43.0°F 41.0°F 93% 29.58 in 10.0 miles Calm Calm - 0.02 in Rain Light Rain
Moon Phase
Dec. 19 Dec. 20 Dec. 28 Jan. 04 Jan. 11
Sunrise:07:53 AM (PST) Moon Rise:11:36 AM (PST)12/19
Sunset:04:19 PM (PST) Moon Set:No Moon Set/

Copyright © 2014 The Weather Underground, Inc.